Location: Eyeline Observatory
(43.2182°N, 78.8632°W)
Time: 05:19:44
(UTC-05:00)

Vanguard 2 - Pass Details

Date: 25 January 2018
Orbit: 553 x 2939 km, 32.9° (Epoch: 23 February)

Event Time Altitude Azimuth Distance (km) Brightness Sun altitude
Rises 00:49:15 0° 195° (SSW) 3,136 - -65.3°
Reaches altitude 10° 00:52:51 10° 165° (SSE) 2,535 - -65.2°
Maximum altitude 00:55:27 13° 139° (SE) 2,583 - -65.1°
Drops below altitude 10° 00:58:31 10° 115° (ESE) 3,116 - -64.9°
Sets 01:04:08 0° 91° (E) 4,687 - -64.6°
